STARLINK-38029, 69752

Orbit data source: Space-Track

STARLINK-38029, 69752 is a payload satellite owned by SpaceX/Seattle (US) in SSO that was launched on Thu, 02 Jul 2026 UTC via an FALCON 9 launch vehicle from the Air Force Western Test Range (AFWTR). Payload-class satellites include a variety of spacecraft equipped with specific instruments for various scientific and technological missions. These include communications satellites like Starlink; space stations such as the ISS; scientific satellites like the Hubble; Earth observation satellites from companies like Planet Labs, Umbra, and HawkEye 360; GPS; miniature CubeSats for education and research; and military/defense satellites.

Loading next visibility...
Identifier
69752, 2026-150P
Orbit
SSO
Country
Flag of USUS
Related business
Manufacturer
SpaceX/Seattle
Mission
Operational spacecraft
Bus & Motor
STARLINK V2MO, Unknown motor
Mass
575 kg wet, ~530 kg dry
Launch date (UTC)
2026-07-02 (3 weeks ago)
Launch vehicle
FALCON 9
Launch site
Air Force Western Test Range (AFWTR)
Object type
Payload
Rocket body
Debris
Shape & HBR
Unknown shape, 17.7 m
Radar Cross Section
Large (>1 m²)

Expand to show TLE details & history
Last TLE update: 17 hours ago

TLE from 17 hours ago
0 STARLINK-38029
1 69752U 26150P   26202.48489872  .00289235  00000-0  18662-2 0  9999
2 69752  97.2861  41.1938 0001202  99.6686 260.4715 15.75300434  4314
Epoch: 2026-07-21T11:38Z
TLE epoch observation values (Epoch: 2026-07-21T11:38:15.249Z)
Latitude
-0.00003°
Longitude
-72.62365°
Altitude
347.079 km
Speed
7.701 km/s
True Right ascension
02h 44m 46s
True Declination
0° 00' 00"
Sunlit
Object was in daylight at epoch
Visualization orbit readout
Latitude
Unknown
Longitude
Unknown
Altitude
Unknown
Speed
Unknown
Apparent Right ascension
Unknown
Apparent Declination
Unknown
Sunlit
N/A
Visualization observer readout
Local Sidereal Time
17:49:24
Azimuth
Unknown
Elevation
Unknown
Doppler factor
Unknown
Orbital elements
Apogee altitude
341.471 km
Perigee altitude
339.856 km
Semi-major axis
6,718.801 km
Eccentricity
0.00012
Inclination
97.2861°
RAAN
41.1938°
Arg. of periapsis
99.6686°
True anomaly
260.45792°
Mean anomaly
260.4715°
Eccentric anomaly
260.46471°
Mean motion
3.94099 °/min
Orbital period
91.35 mins
BSTAR
0.0018662
Loading maneuver chart data...
Computing Atmospheric mass density...
Loading historical data...
Loading historical data...
Loading historical data...
Loading historical data...
Loading historical data...
Loading historical data...
Loading historical data...

Documentation

Showing up to 5 results
|